Meadville, PA

12:47 AM EST on November 25, 2017 (GMT -0500)
Port Meadville

Weather History for KGKJ - May, 2013

Change the Weather History Date:

Thursday, May 23, 2013

  Actual Average Record
Temperature  
Mean Temperature 58 °F -  
Max Temperature 72 °F 73 °F 85 °F (1975)
Min Temperature 44 °F 46 °F 32 °F (1963)
Degree Days  
Heating Degree Days 6    
Growing Degree Days 8 (Base 50)    
Moisture  
Dew Point 57 °F    
Average Humidity 88    
Maximum Humidity 100    
Minimum Humidity 63    
Precipitation  
Precipitation 0.34 in - - ()
Sea Level Pressure  
Sea Level Pressure 29.81 in    
Wind  
Wind Speed 7 mph (West)    
Max Wind Speed 16 mph    
Max Gust Speed 22 mph    
Visibility 6 miles    
Events Fog , Rain    
Averages and records for this station are not official NWS values.
T = Trace of Precipitation, MM = Missing Value Source: NWS Daily Summary

Daily Weather History Graph

Daily Weather History Graph

Search for Another Location

Airport or City:

Trip Planner

Search our weather history database for the weather conditions in past years. The results will help you decide how hot, cold, wet, or windy it might be!

Date:

Astronomy

May. 23, 2013 Rise Set
Actual Time 5:54 AM EDT 8:41 PM EDT
Civil Twilight 5:21 AM EDT 9:14 PM EDT
Nautical Twilight 4:40 AM EDT 9:55 PM EDT
Astronomical Twilight 3:53 AM EDT 10:42 PM EDT
Moon 7:11 PM EDT (5/23) 4:39 AM EDT (5/23)
Length of Visible Light 15h 52m
Length of Day
14h 47m
Waxing Gibbous, 97% of the Moon is Illuminated
May 23
Waxing Gibbous
May 25
Full
May 31
Last Quarter
Jun 8
New
Jun 16
First Quarter

Hourly Weather History & Observations

Time (EDT) Temp. Windchill Dew Point Humidity Pressure Visibility Wind Dir Wind Speed Gust Speed Precip Events Conditions
12:53 AM 68.0 °F - 61.0 °F 78% 29.76 in 10.0 mi SSW 6.9 mph - 0.00 in   Mostly Cloudy
1:53 AM 66.9 °F - 61.0 °F 81% 29.76 in 10.0 mi Variable 5.8 mph - 0.00 in   Overcast
2:53 AM 64.9 °F - 62.1 °F 90% 29.75 in 10.0 mi South 6.9 mph - 0.02 in Rain Light Rain
3:14 AM 64.4 °F - 62.6 °F 94% 29.78 in 10.0 mi South 8.1 mph - 0.00 in   Overcast
3:26 AM 64.4 °F - 62.6 °F 94% 29.78 in 10.0 mi Variable 5.8 mph - 0.00 in   Overcast
3:53 AM 64.9 °F - 62.1 °F 90% 29.75 in 10.0 mi South 6.9 mph - 0.00 in   Overcast
4:53 AM 64.9 °F - 62.1 °F 90% 29.76 in 10.0 mi Variable 6.9 mph - N/A   Overcast
5:53 AM 64.0 °F - 61.0 °F 90% 29.75 in 10.0 mi SSW 6.9 mph - N/A   Overcast
6:35 AM 64.4 °F - 60.8 °F 88% 29.80 in 9.0 mi SW 8.1 mph - N/A   Overcast
6:49 AM 64.4 °F - 60.8 °F 88% 29.81 in 9.0 mi SSW 8.1 mph - N/A   Overcast
6:53 AM 64.0 °F - 61.0 °F 90% 29.78 in 9.0 mi SW 8.1 mph - N/A   Overcast
7:30 AM 64.4 °F - 60.8 °F 88% 29.82 in 10.0 mi SW 5.8 mph - N/A   Overcast
7:32 AM 64.4 °F - 60.8 °F 88% 29.82 in 10.0 mi SW 8.1 mph - N/A   Overcast
7:53 AM 64.9 °F - 61.0 °F 87% 29.79 in 10.0 mi SW 8.1 mph - N/A   Overcast
8:01 AM 64.4 °F - 60.8 °F 88% 29.82 in 10.0 mi SSW 5.8 mph - N/A   Overcast
8:39 AM 66.2 °F - 60.8 °F 83% 29.82 in 10.0 mi SW 8.1 mph - N/A   Mostly Cloudy
8:53 AM 66.9 °F - 60.1 °F 79% 29.79 in 10.0 mi WSW 9.2 mph - N/A   Mostly Cloudy
9:10 AM 66.2 °F - 60.8 °F 83% 29.82 in 10.0 mi SW 8.1 mph - N/A   Mostly Cloudy
9:30 AM 68.0 °F - 60.8 °F 78% 29.82 in 10.0 mi SSW 9.2 mph - N/A   Mostly Cloudy
9:53 AM 68.0 °F - 57.9 °F 70% 29.80 in 10.0 mi WSW 6.9 mph - N/A   Overcast
10:53 AM 70.0 °F - 57.0 °F 63% 29.79 in 10.0 mi WSW 10.4 mph - N/A   Mostly Cloudy
11:53 AM 71.1 °F - 57.9 °F 63% 29.79 in 10.0 mi SW 8.1 mph 19.6 mph N/A   Mostly Cloudy
12:53 PM 64.9 °F - 60.1 °F 84% 29.79 in 4.0 mi WSW 5.8 mph - 0.03 in Rain Light Rain
1:53 PM 68.0 °F - 60.1 °F 76% 29.78 in 10.0 mi WSW 4.6 mph - 0.00 in   Overcast
2:50 PM 64.4 °F - 60.8 °F 88% 29.79 in 6.0 mi South 4.6 mph - 0.05 in Rain Light Rain
2:53 PM 64.0 °F - 62.1 °F 93% 29.78 in 6.0 mi SW 5.8 mph - 0.05 in Rain Light Rain
3:53 PM 66.9 °F - 59.0 °F 76% 29.77 in 10.0 mi WSW 8.1 mph - 0.00 in   Mostly Cloudy
4:22 PM 60.8 °F - 55.4 °F 82% 29.80 in 1.8 mi NW 6.9 mph 18.4 mph 0.06 in Rain Rain
4:31 PM 59.0 °F - 57.2 °F 94% 29.81 in 2.5 mi NW 6.9 mph - 0.08 in Rain Light Rain
4:53 PM 59.0 °F - 57.0 °F 93% 29.80 in 1.8 mi NNW 3.5 mph - 0.13 in Rain Rain
5:02 PM 60.8 °F - 57.2 °F 88% 29.81 in 2.0 mi NNW 3.5 mph - 0.01 in Rain Light Rain
5:14 PM 60.8 °F - 57.2 °F 88% 29.80 in 4.0 mi Variable 3.5 mph - 0.02 in Rain Light Rain
5:38 PM 60.8 °F - 57.2 °F 88% 29.82 in 5.0 mi WNW 3.5 mph - 0.02 in   Overcast
5:53 PM 60.1 °F - 57.0 °F 90% 29.81 in 1.8 mi NW 3.5 mph - 0.05 in Rain Rain
6:09 PM 60.8 °F - 57.2 °F 88% 29.82 in 2.5 mi Variable 4.6 mph - 0.02 in Rain Light Rain
6:26 PM 59.0 °F - 57.2 °F 94% 29.81 in 3.0 mi WNW 5.8 mph - 0.03 in   Overcast
6:34 PM 59.0 °F - 57.2 °F 94% 29.81 in 3.0 mi WNW 8.1 mph - 0.03 in Rain Light Rain
6:41 PM 59.0 °F - 57.2 °F 94% 29.82 in 3.0 mi WNW 9.2 mph - 0.03 in   Overcast
6:49 PM 57.2 °F - 55.4 °F 94% 29.82 in 1.8 mi WNW 8.1 mph - 0.03 in   Overcast
6:53 PM 57.0 °F - 55.0 °F 93% 29.81 in 0.8 mi NW 6.9 mph - 0.03 in Rain Light Rain
7:20 PM 53.6 °F - 53.6 °F 100% 29.83 in 0.2 mi NW 10.4 mph - 0.00 in Fog Fog
7:53 PM 50.0 °F - 48.9 °F 96% 29.85 in 0.2 mi WNW 13.8 mph 18.4 mph 0.00 in Fog Fog
8:35 PM 50.0 °F - 48.2 °F 94% 29.87 in 0.8 mi WNW 8.1 mph - N/A   Mist
8:43 PM 50.0 °F - 48.2 °F 94% 29.87 in 1.8 mi NW 10.4 mph 16.1 mph N/A   Overcast
8:51 PM 48.2 °F - 48.2 °F 100% 29.87 in 2.5 mi NW 12.7 mph - N/A   Overcast
8:53 PM 48.9 °F - 48.0 °F 97% 29.87 in 3.0 mi NW 10.4 mph 16.1 mph N/A   Overcast
9:07 PM 48.2 °F - 46.4 °F 93% 29.88 in 3.0 mi NW 6.9 mph - N/A   Overcast
9:53 PM 46.9 °F - 45.0 °F 93% 29.90 in 5.0 mi NW 9.2 mph 16.1 mph 0.01 in   Overcast
10:12 PM 46.4 °F 39.8 °F 44.6 °F 93% 29.92 in 4.0 mi NW 16.1 mph 21.9 mph 0.00 in   Overcast
10:53 PM 46.0 °F 41.4 °F 44.1 °F 93% 29.93 in 5.0 mi NW 9.2 mph 17.3 mph 0.01 in Rain Light Rain
11:53 PM 44.1 °F 38.6 °F 42.1 °F 93% 29.94 in 4.0 mi North 10.4 mph 17.3 mph 0.01 in   Overcast